FW8225 Weather Reports


Display with metric or nautical units.
time (UTC)temp
F
wind
direction
speed
MPH
gust
MPH
rain 1hr
in
rain 24hr
in
rain mn
in
humidity
%
barometer
mb
20260504204314 68 25 15.0 22.0 0.00 0.00 0.00 26 1005.7
20260504203813 67 4 17.0 28.0 0.00 0.00 0.00 27 1005.5
20260504203309 66 22 12.0 24.0 0.00 0.00 0.00 27 1005.7
20260504202804 67 33 12.0 28.0 0.00 0.00 0.00 27 1005.5
20260504202304 69 21 12.0 27.0 0.00 0.00 0.00 26 1005.4
20260504201759 69 47 21.0 24.0 0.00 0.00 0.00 25 1005.4
20260504201256 71 26 21.0 24.0 0.00 0.00 0.00 24 1005.3
20260504200754 70 18 15.0 24.0 0.00 0.00 0.00 25 1005.3
20260504200249 69 36 12.0 23.0 0.00 0.00 0.00 26 1005.4
20260504195746 70 41 18.0 25.0 0.00 0.00 0.00 26 1005.4
20260504195242 69 46 17.0 19.0 0.00 0.00 0.00 25 1005.5
20260504194739 70 43 15.0 26.0 0.00 0.00 0.00 25 1005.3
20260504194235 69 20 12.0 25.0 0.00 0.00 0.00 26 1005.5
20260504193732 69 27 21.0 23.0 0.00 0.00 0.00 26 1005.4
20260504193229 69 31 17.0 22.0 0.00 0.00 0.00 26 1005.5
20260504192728 68 27 15.0 20.0 0.00 0.00 0.00 27 1005.5
20260504192225 67 358 21.0 27.0 0.00 0.00 0.00 27 1005.6
20260504191724 70 9 24.0 24.0 0.00 0.00 0.00 26 1005.7
20260504191220 69 357 17.0 30.0 0.00 0.00 0.00 27 1005.6
20260504190715 69 4 21.0 26.0 0.00 0.00 0.00 27 1005.7
20260504190212 70 16 24.0 25.0 0.00 0.00 0.00 27 1005.5
20260504185709 69 0 25.0 29.0 0.00 0.00 0.00 28 1005.6
20260504185205 71 31 10.0 21.0 0.00 0.00 0.00 27 1005.6
20260504184702 69 29 22.0 23.0 0.00 0.00 0.00 29 1005.5
20260504184157 70 29 17.0 25.0 0.00 0.00 0.00 28 1005.6
20260504183654 70 4 13.0 25.0 0.00 0.00 0.00 29 1005.1
20260504183151 69 13 13.0 28.0 0.00 0.00 0.00 29 1005.4
20260504182649 70 18 17.0 28.0 0.00 0.00 0.00 27 1005.1
20260504182146 70 13 10.0 15.0 0.00 0.00 0.00 25 1005.0
20260504181644 69 39 17.0 20.0 0.00 0.00 0.00 26 1005.3
20260504181141 70 56 13.0 20.0 0.00 0.00 0.00 26 1005.1
20260504180640 69 57 15.0 22.0 0.00 0.00 0.00 28 1005.3
20260504180138 68 18 11.0 21.0 0.00 0.00 0.00 27 1005.0
20260504175635 70 23 15.0 21.0 0.00 0.00 0.00 26 1004.8
20260504175132 69 16 16.0 22.0 0.00 0.00 0.00 26 1004.9
20260504174630 69 37 17.0 20.0 0.00 0.00 0.00 25 1004.8
20260504174126 69 10 21.0 27.0 0.00 0.00 0.00 25 1005.0
20260504173624 72 345 15.0 16.0 0.00 0.00 0.00 17 1004.7
20260504173121 74 11 5.0 12.0 0.00 0.00 0.00 17 1004.7
20260504172617 74 306 4.0 4.0 0.00 0.00 0.00 17 1004.9
20260504172114 74 217 1.0 5.0 0.00 0.00 0.00 18 1004.9
20260504171610 74 142 4.0 8.0 0.00 0.00 0.00 18 1004.8
20260504171108 72 71 2.0 3.0 0.00 0.00 0.00 19 1004.8
20260504170603 71 148 6.0 9.0 0.00 0.00 0.00 20 1004.6
20260504150947 69 341 6.0 6.0 0.00 0.00 0.00 24 1005.5
20260504150444 67 216 3.0 4.0 0.00 0.00 0.00 25 1005.6
20260504140910 58 281 4.0 7.0 0.00 0.00 0.00 35 1005.8
20260504140406 57 255 5.0 7.0 0.00 0.00 0.00 36 1006.1
20260504130719 49 307 8.0 9.0 0.00 0.00 0.00 45 1006.4
20260504130215 48 303 5.0 8.0 0.00 0.00 0.00 46 1006.4
20260504110439 44 309 6.0 7.0 0.00 0.00 0.00 55 1006.4
20260504100355 48 241 3.0 4.0 0.00 0.00 0.00 49 1006.5
20260504081748 45 203 5.0 8.0 0.00 0.00 0.00 56 1007.7
20260504081245 45 193 6.0 9.0 0.00 0.00 0.00 55 1007.7
20260504080741 44 191 5.0 6.0 0.00 0.00 0.00 58 1007.8
20260504080238 44 192 5.0 7.0 0.00 0.00 0.00 59 1007.8
20260504070206 47 175 6.0 6.0 0.00 0.00 0.00 54 1008.5
20260504060126 51 174 4.0 4.0 0.00 0.00 0.00 51 1009.0
20260504050554 50 5 3.0 5.0 0.00 0.00 0.00 51 1009.2
20260504045548 51 88 4.0 5.0 0.00 0.00 0.00 51 1009.0
20260504045043 51 68 4.0 6.0 0.00 0.00 0.00 50 1009.1
20260504044541 51 78 6.0 7.0 0.00 0.00 0.00 51 1009.1
20260504044038 51 93 4.0 5.0 0.00 0.00 0.00 50 1009.2
20260504043535 51 93 4.0 5.0 0.00 0.00 0.00 49 1009.5
20260504043032 51 87 5.0 5.0 0.00 0.00 0.00 49 1009.4
20260504042529 51 104 4.0 5.0 0.00 0.00 0.00 49 1009.4
20260504042026 51 102 5.0 5.0 0.00 0.00 0.00 49 1009.4
20260504041522 51 94 6.0 6.0 0.00 0.00 0.00 49 1009.6
20260504041018 51 103 6.0 6.0 0.00 0.00 0.00 49 1009.6
20260504040516 50 105 7.0 9.0 0.00 0.00 0.00 51 1009.6
20260504040012 49 122 7.0 9.0 0.00 0.00 0.00 50 1009.5
20260504035509 50 136 6.0 6.0 0.00 0.00 0.00 49 1009.6
20260504035005 51 120 5.0 6.0 0.00 0.00 0.00 48 1009.5
20260504034503 52 116 5.0 7.0 0.00 0.00 0.00 48 1009.6
20260504034000 51 128 4.0 6.0 0.00 0.00 0.00 49 1009.7
20260504033458 50 118 7.0 8.0 0.00 0.00 0.00 51 1009.8
20260504032955 50 139 6.0 7.0 0.00 0.00 0.00 49 1009.6
20260504032452 52 145 6.0 7.0 0.00 0.00 0.00 46 1009.6
20260504031948 53 100 4.0 4.0 0.00 0.00 0.00 46 1009.6
20260504031445 54 70 5.0 7.0 0.00 0.00 0.00 44 1009.5
20260504030942 55 71 7.0 8.0 0.00 0.00 0.00 43 1009.5
20260504030439 56 57 9.0 9.0 0.00 0.00 0.00 42 1009.5
20260504025935 56 41 7.0 10.0 0.00 0.00 0.00 42 1009.2
20260504025432 56 46 8.0 11.0 0.00 0.00 0.00 42 1009.4
20260504024929 57 50 6.0 11.0 0.00 0.00 0.00 40 1009.4
20260504024426 58 52 7.0 11.0 0.00 0.00 0.00 39 1009.4
20260504023923 59 32 11.0 13.0 0.00 0.00 0.00 39 1009.4
20260504023419 59 42 9.0 15.0 0.00 0.00 0.00 37 1009.4
20260504022915 60 34 10.0 19.0 0.00 0.00 0.00 36 1009.1
20260504022412 61 24 10.0 19.0 0.00 0.00 0.00 35 1009.2
20260504021908 62 26 11.0 23.0 0.00 0.00 0.00 32 1009.0
20260504021406 64 353 18.0 22.0 0.00 0.00 0.00 28 1009.0
20260504020903 64 12 10.0 12.0 0.00 0.00 0.00 27 1008.7
20260504020359 63 7 9.0 10.0 0.00 0.00 0.00 27 1008.7
20260504015855 64 19 2.0 3.0 0.00 0.00 0.00 26 1008.3
20260504015351 65 18 2.0 4.0 0.00 0.00 0.00 25 1008.1
20260504014848 65 57 2.0 2.0 0.00 0.00 0.00 25 1008.0
20260504014344 65 9 4.0 6.0 0.00 0.00 0.00 25 1008.0
20260504013842 65 7 7.0 9.0 0.00 0.00 0.00 25 1007.8
20260504013339 66 325 9.0 15.0 0.00 0.00 0.00 24 1007.9
20260504012836 67 158 6.0 8.0 0.00 0.00 0.00 23 1007.5
20260504012334 68 300 4.0 11.0 0.00 0.00 0.00 22 1007.5
20260504011831 65 173 10.0 11.0 0.00 0.00 0.00 24 1007.7
20260504011327 65 183 3.0 4.0 0.00 0.00 0.00 25 1007.9
20260504010823 66 141 5.0 6.0 0.00 0.00 0.00 25 1007.7
20260504010319 66 152 4.0 5.0 0.00 0.00 0.00 24 1007.7
20260504005816 67 138 4.0 5.0 0.00 0.00 0.00 23 1007.5
20260504005313 67 147 5.0 5.0 0.00 0.00 0.00 24 1007.7
20260504004810 68 133 2.0 5.0 0.00 0.00 0.00 23 1007.7
20260504004308 68 124 6.0 7.0 0.00 0.00 0.00 22 1007.7
20260504003804 68 148 7.0 9.0 0.00 0.00 0.00 23 1007.7
20260504003301 69 175 4.0 6.0 0.00 0.00 0.00 22 1007.4
20260504002757 69 189 7.0 9.0 0.00 0.00 0.00 22 1007.5
20260504002254 70 108 8.0 14.0 0.00 0.00 0.00 20 1007.4
20260504001752 71 118 8.0 14.0 0.00 0.00 0.00 20 1007.5
20260504001249 71 155 10.0 14.0 0.00 0.00 0.00 20 1007.4
20260504000746 71 66 3.0 9.0 0.00 0.00 0.00 20 1007.7
20260504000243 71 180 4.0 13.0 0.00 0.00 0.00 20 1007.7
20260503235741 72 115 8.0 8.0 0.00 0.00 0.00 19 1007.9
20260503235238 72 3 4.0 4.0 0.00 0.00 0.00 20 1007.7
20260503234735 71 140 4.0 5.0 0.00 0.00 0.00 20 1008.0
20260503234233 70 208 2.0 4.0 0.00 0.00 0.00 21 1008.5
20260503233730 70 123 4.0 5.0 0.00 0.00 0.00 21 1008.2
20260503233225 70 124 4.0 8.0 0.00 0.00 0.00 21 1008.1
20260503232717 70 104 5.0 5.0 0.00 0.00 0.00 21 1008.2
20260503232214 70 183 2.0 3.0 0.00 0.00 0.00 20 1008.1
20260503231713 71 236 3.0 6.0 0.00 0.00 0.00 20 1008.3
20260503231209 70 121 3.0 4.0 0.00 0.00 0.00 20 1008.2
20260503230705 70 127 6.0 9.0 0.00 0.00 0.00 20 1008.2
20260503230203 71 156 2.0 9.0 0.00 0.00 0.00 20 1008.3
20260503225659 71 156 9.0 12.0 0.00 0.00 0.00 20 1008.2
20260503225154 71 133 5.0 7.0 0.00 0.00 0.00 20 1008.3
20260503224652 71 234 3.0 11.0 0.00 0.00 0.00 20 1008.2
20260503224149 71 200 5.0 13.0 0.00 0.00 0.00 20 1008.5
20260503223647 72 172 9.0 12.0 0.00 0.00 0.00 19 1008.5
20260503223143 71 202 5.0 14.0 0.00 0.00 0.00 20 1008.6
20260503222641 71 198 9.0 13.0 0.00 0.00 0.00 20 1008.7
20260503222138 71 180 4.0 9.0 0.00 0.00 0.00 20 1008.8
20260503221636 71 153 9.0 11.0 0.00 0.00 0.00 20 1009.0
20260503221133 70 161 9.0 10.0 0.00 0.00 0.00 22 1008.9
20260503220630 70 162 13.0 14.0 0.00 0.00 0.00 22 1009.0
20260503220127 70 112 3.0 11.0 0.00 0.00 0.00 21 1009.0
20260503215624 70 199 1.0 11.0 0.00 0.00 0.00 21 1009.1
20260503215120 71 114 5.0 12.0 0.00 0.00 0.00 21 1009.1
20260503214619 71 141 11.0 14.0 0.00 0.00 0.00 21 1009.1
20260503214114 71 98 5.0 6.0 0.00 0.00 0.00 22 1009.4
20260503213609 69 76 5.0 6.0 0.00 0.00 0.00 22 1009.7
20260503213104 69 100 6.0 8.0 0.00 0.00 0.00 22 1010.0
20260503212602 69 129 7.0 10.0 0.00 0.00 0.00 22 1009.8
20260503212059 69 161 4.0 7.0 0.00 0.00 0.00 23 1009.9
20260503211556 69 138 6.0 11.0 0.00 0.00 0.00 23 1010.0
20260503211051 69 168 10.0 11.0 0.00 0.00 0.00 22 1009.9
20260503210549 69 166 4.0 9.0 0.00 0.00 0.00 23 1010.2
20260503210044 69 144 6.0 11.0 0.00 0.00 0.00 23 1010.0
20260503205541 69 177 3.0 13.0 0.00 0.00 0.00 23 1010.2
20260503205038 70 135 6.0 8.0 0.00 0.00 0.00 23 1010.3